| time (UTC) | temp F | wind direction | speed MPH | gust MPH | rain 1hr in | rain 24hr in | rain mn in | humidity % | barometer mb |
| 20260506032705 | 50 | 15 | 5.0 | 9.0 | 0.00 | 0.00 | 0.00 | 85 | 1008.5 |
| 20260506032205 | 50 | 17 | 3.0 | 5.0 | 0.00 | 0.00 | 0.00 | 85 | 1008.5 |
| 20260506031705 | 50 | 20 | 6.0 | 12.0 | 0.00 | 0.00 | 0.00 | 85 | 1008.5 |
| 20260506031205 | 50 | 14 | 3.0 | 8.0 | 0.00 | 0.00 | 0.00 | 85 | 1008.5 |
| 20260506030705 | 50 | 18 | 5.0 | 10.0 | 0.00 | 0.00 | 0.00 | 84 | 1008.6 |
| 20260506030205 | 51 | 11 | 4.0 | 9.0 | 0.00 | 0.00 | 0.00 | 84 | 1008.6 |
| 20260506025705 | 51 | 12 | 3.0 | 7.0 | 0.00 | 0.00 | 0.00 | 84 | 1008.7 |
| 20260506025204 | 50 | 12 | 5.0 | 9.0 | 0.00 | 0.00 | 0.00 | 84 | 1008.7 |
| 20260506024705 | 50 | 14 | 5.0 | 8.0 | 0.00 | 0.00 | 0.00 | 84 | 1008.7 |
| 20260506024204 | 50 | 10 | 3.0 | 8.0 | 0.00 | 0.00 | 0.00 | 84 | 1008.7 |
| 20260506023705 | 50 | 15 | 6.0 | 10.0 | 0.00 | 0.00 | 0.00 | 84 | 1008.7 |
| 20260506023205 | 50 | 6 | 5.0 | 9.0 | 0.00 | 0.00 | 0.00 | 84 | 1008.7 |
| 20260506022704 | 50 | 4 | 6.0 | 10.0 | 0.00 | 0.00 | 0.00 | 84 | 1008.8 |
| 20260506022204 | 50 | 13 | 6.0 | 9.0 | 0.00 | 0.00 | 0.00 | 84 | 1008.8 |
| 20260506021704 | 50 | 15 | 6.0 | 12.0 | 0.00 | 0.00 | 0.00 | 84 | 1008.7 |
| 20260506021204 | 50 | 10 | 4.0 | 9.0 | 0.00 | 0.00 | 0.00 | 84 | 1008.8 |
| 20260506020704 | 50 | 3 | 5.0 | 8.0 | 0.00 | 0.00 | 0.00 | 84 | 1008.8 |
| 20260506020205 | 50 | 17 | 5.0 | 9.0 | 0.00 | 0.00 | 0.00 | 84 | 1008.8 |
| 20260506015705 | 50 | 8 | 6.0 | 12.0 | 0.00 | 0.00 | 0.00 | 84 | 1008.8 |
| 20260506015205 | 50 | 353 | 6.0 | 12.0 | 0.00 | 0.00 | 0.00 | 84 | 1008.8 |
| 20260506014704 | 50 | 10 | 4.0 | 10.0 | 0.00 | 0.00 | 0.00 | 84 | 1008.8 |
| 20260506014205 | 50 | 356 | 4.0 | 10.0 | 0.00 | 0.00 | 0.00 | 84 | 1008.8 |
| 20260506013704 | 50 | 350 | 4.0 | 8.0 | 0.00 | 0.00 | 0.00 | 84 | 1008.9 |
| 20260506013205 | 50 | 8 | 5.0 | 8.0 | 0.00 | 0.00 | 0.00 | 83 | 1008.9 |
| 20260506012705 | 50 | 357 | 5.0 | 9.0 | 0.00 | 0.00 | 0.00 | 84 | 1008.9 |
| 20260506012204 | 50 | 356 | 4.0 | 9.0 | 0.00 | 0.00 | 0.00 | 83 | 1008.9 |
| 20260506011705 | 50 | 12 | 5.0 | 8.0 | 0.00 | 0.00 | 0.00 | 84 | 1008.9 |
| 20260506011205 | 50 | 8 | 5.0 | 9.0 | 0.00 | 0.00 | 0.00 | 83 | 1008.9 |
| 20260506010704 | 50 | 19 | 6.0 | 10.0 | 0.00 | 0.00 | 0.00 | 83 | 1009.0 |
| 20260506010204 | 50 | 9 | 5.0 | 9.0 | 0.00 | 0.00 | 0.00 | 84 | 1009.1 |
| 20260506005205 | 50 | 24 | 6.0 | 12.0 | 0.00 | 0.00 | 0.00 | 84 | 1009.1 |
| 20260506003704 | 50 | 18 | 5.0 | 8.0 | 0.00 | 0.00 | 0.00 | 84 | 1009.2 |
| 20260506003205 | 50 | 23 | 5.0 | 10.0 | 0.00 | 0.00 | 0.00 | 84 | 1009.3 |
| 20260506002704 | 50 | 13 | 5.0 | 12.0 | 0.00 | 0.00 | 0.00 | 84 | 1009.3 |
| 20260506001705 | 50 | 23 | 8.0 | 13.0 | 0.00 | 0.00 | 0.00 | 83 | 1009.4 |
| 20260506001205 | 50 | 17 | 6.0 | 12.0 | 0.00 | 0.00 | 0.00 | 84 | 1009.5 |
| 20260506000704 | 50 | 15 | 7.0 | 14.0 | 0.00 | 0.00 | 0.00 | 84 | 1009.5 |
| 20260506000205 | 50 | 0 | 6.0 | 12.0 | 0.00 | 0.00 | 0.00 | 84 | 1009.5 |
| 20260505235705 | 50 | 19 | 5.0 | 10.0 | 0.00 | 0.00 | 0.00 | 83 | 1009.5 |
| 20260505235204 | 50 | 10 | 5.0 | 9.0 | 0.00 | 0.00 | 0.00 | 83 | 1009.5 |
| 20260505234704 | 50 | 19 | 6.0 | 10.0 | 0.00 | 0.00 | 0.00 | 83 | 1009.5 |
| 20260505234204 | 50 | 14 | 5.0 | 9.0 | 0.00 | 0.00 | 0.00 | 83 | 1009.6 |
| 20260505233705 | 50 | 11 | 6.0 | 13.0 | 0.00 | 0.00 | 0.00 | 84 | 1009.6 |
| 20260505233205 | 49 | 2 | 4.0 | 10.0 | 0.00 | 0.00 | 0.00 | 83 | 1009.7 |
| 20260505232704 | 49 | 8 | 5.0 | 10.0 | 0.00 | 0.00 | 0.00 | 83 | 1009.7 |
| 20260505232205 | 49 | 14 | 5.0 | 10.0 | 0.00 | 0.00 | 0.00 | 83 | 1009.8 |
| 20260505231704 | 49 | 8 | 5.0 | 8.0 | 0.00 | 0.00 | 0.00 | 83 | 1009.8 |
| 20260505231204 | 49 | 11 | 3.0 | 8.0 | 0.00 | 0.00 | 0.00 | 83 | 1009.9 |
| 20260505230704 | 49 | 23 | 6.0 | 10.0 | 0.00 | 0.00 | 0.00 | 83 | 1009.9 |
| 20260505230204 | 49 | 19 | 5.0 | 7.0 | 0.00 | 0.00 | 0.00 | 83 | 1009.9 |
| 20260505225704 | 49 | 25 | 5.0 | 7.0 | 0.00 | 0.00 | 0.00 | 83 | 1009.9 |
| 20260505224705 | 49 | 0 | 6.0 | 9.0 | 0.00 | 0.00 | 0.00 | 82 | 1009.9 |
| 20260505224204 | 49 | 14 | 5.0 | 10.0 | 0.00 | 0.00 | 0.00 | 82 | 1009.9 |
| 20260505223704 | 49 | 28 | 4.0 | 9.0 | 0.00 | 0.00 | 0.00 | 81 | 1009.9 |
| 20260505223204 | 49 | 17 | 4.0 | 9.0 | 0.00 | 0.00 | 0.00 | 81 | 1010.0 |
| 20260505222706 | 50 | 21 | 5.0 | 10.0 | 0.00 | 0.00 | 0.00 | 81 | 1009.9 |
| 20260505222205 | 50 | 10 | 5.0 | 10.0 | 0.00 | 0.00 | 0.00 | 80 | 1010.0 |
| 20260505221704 | 50 | 11 | 6.0 | 10.0 | 0.00 | 0.00 | 0.00 | 80 | 1010.0 |
| 20260505221205 | 50 | 15 | 5.0 | 12.0 | 0.00 | 0.00 | 0.00 | 79 | 1010.1 |
| 20260505220204 | 51 | 11 | 5.0 | 10.0 | 0.00 | 0.00 | 0.00 | 78 | 1010.1 |
| 20260505215704 | 51 | 17 | 6.0 | 12.0 | 0.00 | 0.00 | 0.00 | 78 | 1010.1 |
| 20260505215204 | 51 | 17 | 7.0 | 12.0 | 0.00 | 0.00 | 0.00 | 78 | 1010.2 |
| 20260505214704 | 51 | 16 | 6.0 | 14.0 | 0.00 | 0.00 | 0.00 | 77 | 1010.1 |
| 20260505213204 | 51 | 15 | 6.0 | 9.0 | 0.00 | 0.00 | 0.00 | 77 | 1010.3 |
| 20260505212704 | 51 | 21 | 9.0 | 12.0 | 0.00 | 0.00 | 0.00 | 77 | 1010.3 |
| 20260505212204 | 51 | 15 | 6.0 | 10.0 | 0.00 | 0.00 | 0.00 | 78 | 1010.3 |
| 20260505211704 | 51 | 25 | 9.0 | 13.0 | 0.00 | 0.00 | 0.00 | 77 | 1010.3 |
| 20260505211203 | 51 | 17 | 5.0 | 12.0 | 0.00 | 0.00 | 0.00 | 77 | 1010.3 |
| 20260505210704 | 51 | 23 | 7.0 | 10.0 | 0.00 | 0.00 | 0.00 | 77 | 1010.3 |
| 20260505210204 | 51 | 8 | 4.0 | 10.0 | 0.00 | 0.00 | 0.00 | 77 | 1010.4 |
| 20260505205204 | 51 | 19 | 7.0 | 12.0 | 0.00 | 0.00 | 0.00 | 77 | 1010.4 |
| 20260505204703 | 51 | 15 | 5.0 | 13.0 | 0.00 | 0.00 | 0.00 | 76 | 1010.4 |
| 20260505204203 | 51 | 20 | 7.0 | 12.0 | 0.00 | 0.00 | 0.00 | 77 | 1010.5 |
| 20260505203704 | 51 | 5 | 6.0 | 12.0 | 0.00 | 0.00 | 0.00 | 77 | 1010.5 |
| 20260505203204 | 51 | 17 | 5.0 | 12.0 | 0.00 | 0.00 | 0.00 | 77 | 1010.5 |
| 20260505202704 | 51 | 17 | 6.0 | 9.0 | 0.00 | 0.00 | 0.00 | 78 | 1010.5 |
| 20260505202202 | 51 | 30 | 6.0 | 12.0 | 0.00 | 0.00 | 0.00 | 77 | 1010.4 |
| 20260505201702 | 51 | 17 | 6.0 | 12.0 | 0.00 | 0.00 | 0.00 | 77 | 1010.4 |
| 20260505201202 | 51 | 8 | 7.0 | 10.0 | 0.00 | 0.00 | 0.00 | 78 | 1010.4 |
| 20260505200702 | 51 | 19 | 7.0 | 12.0 | 0.00 | 0.00 | 0.00 | 78 | 1010.4 |
| 20260505200201 | 51 | 15 | 6.0 | 12.0 | 0.00 | 0.00 | 0.00 | 78 | 1010.4 |
| 20260505195202 | 51 | 13 | 3.0 | 5.0 | 0.00 | 0.00 | 0.00 | 80 | 1010.3 |
| 20260505194702 | 51 | 21 | 5.0 | 9.0 | 0.00 | 0.00 | 0.00 | 80 | 1010.3 |
| 20260505194203 | 51 | 19 | 5.0 | 9.0 | 0.00 | 0.00 | 0.00 | 80 | 1010.2 |
| 20260505193702 | 51 | 14 | 7.0 | 12.0 | 0.00 | 0.00 | 0.00 | 80 | 1010.1 |
| 20260505193202 | 52 | 13 | 4.0 | 7.0 | 0.00 | 0.00 | 0.00 | 80 | 1010.1 |
| 20260505192213 | 52 | 18 | 6.0 | 12.0 | 0.00 | 0.00 | 0.00 | 79 | 1010.0 |
| 20260505191714 | 52 | 10 | 6.0 | 12.0 | 0.00 | 0.00 | 0.00 | 79 | 1010.0 |
| 20260505191214 | 52 | 17 | 8.0 | 13.0 | 0.00 | 0.00 | 0.00 | 78 | 1009.8 |
| 20260505190713 | 53 | 11 | 7.0 | 13.0 | 0.00 | 0.00 | 0.00 | 78 | 1009.8 |
| 20260505190214 | 53 | 8 | 7.0 | 14.0 | 0.00 | 0.00 | 0.00 | 78 | 1009.7 |
| 20260505185714 | 53 | 14 | 6.0 | 15.0 | 0.00 | 0.00 | 0.00 | 77 | 1009.8 |
| 20260505185214 | 53 | 10 | 7.0 | 12.0 | 0.00 | 0.00 | 0.00 | 77 | 1009.8 |
| 20260505184714 | 53 | 16 | 9.0 | 13.0 | 0.00 | 0.00 | 0.00 | 77 | 1009.7 |
| 20260505184214 | 54 | 16 | 7.0 | 13.0 | 0.00 | 0.00 | 0.00 | 78 | 1009.7 |
| 20260505183714 | 54 | 16 | 5.0 | 8.0 | 0.00 | 0.00 | 0.00 | 78 | 1009.6 |
| 20260505183213 | 54 | 28 | 5.0 | 12.0 | 0.00 | 0.00 | 0.00 | 77 | 1009.6 |
| 20260505182714 | 54 | 13 | 6.0 | 12.0 | 0.00 | 0.00 | 0.00 | 77 | 1009.6 |
| 20260505182214 | 54 | 23 | 6.0 | 13.0 | 0.00 | 0.00 | 0.00 | 77 | 1009.6 |
| 20260505181214 | 54 | 28 | 6.0 | 10.0 | 0.00 | 0.00 | 0.00 | 77 | 1009.6 |
| 20260505180213 | 54 | 14 | 5.0 | 12.0 | 0.00 | 0.00 | 0.00 | 77 | 1009.7 |
| 20260505175213 | 54 | 15 | 6.0 | 15.0 | 0.00 | 0.00 | 0.00 | 76 | 1009.7 |
| 20260505174713 | 55 | 14 | 6.0 | 13.0 | 0.00 | 0.00 | 0.00 | 75 | 1009.6 |
| 20260505174214 | 55 | 34 | 6.0 | 13.0 | 0.00 | 0.00 | 0.00 | 75 | 1009.6 |
| 20260505173714 | 55 | 16 | 6.0 | 13.0 | 0.00 | 0.00 | 0.00 | 75 | 1009.6 |
| 20260505173213 | 55 | 15 | 6.0 | 14.0 | 0.00 | 0.00 | 0.00 | 75 | 1009.6 |
| 20260505172714 | 55 | 66 | 7.0 | 14.0 | 0.00 | 0.00 | 0.00 | 76 | 1009.7 |
| 20260505172215 | 56 | 20 | 5.0 | 12.0 | 0.00 | 0.00 | 0.00 | 75 | 1009.8 |
| 20260505171715 | 56 | 38 | 5.0 | 12.0 | 0.00 | 0.00 | 0.00 | 75 | 1009.7 |
| 20260505171213 | 56 | 57 | 6.0 | 12.0 | 0.00 | 0.00 | 0.00 | 75 | 1009.8 |
| 20260505170714 | 56 | 22 | 7.0 | 14.0 | 0.00 | 0.00 | 0.00 | 74 | 1009.8 |
| 20260505170213 | 56 | 17 | 7.0 | 14.0 | 0.00 | 0.00 | 0.00 | 73 | 1009.7 |
| 20260505165714 | 56 | 7 | 7.0 | 14.0 | 0.00 | 0.00 | 0.00 | 71 | 1009.8 |
| 20260505165214 | 57 | 25 | 5.0 | 12.0 | 0.00 | 0.00 | 0.00 | 72 | 1009.7 |
| 20260505163713 | 58 | 40 | 5.0 | 13.0 | 0.00 | 0.00 | 0.00 | 71 | 1009.8 |
| 20260505163213 | 58 | 8 | 5.0 | 10.0 | 0.00 | 0.00 | 0.00 | 70 | 1009.8 |
| 20260505162713 | 58 | 13 | 8.0 | 14.0 | 0.00 | 0.00 | 0.00 | 68 | 1009.9 |
| 20260505162214 | 58 | 44 | 6.0 | 12.0 | 0.00 | 0.00 | 0.00 | 69 | 1009.8 |
| 20260505161713 | 58 | 42 | 7.0 | 12.0 | 0.00 | 0.00 | 0.00 | 67 | 1009.8 |
| 20260505161213 | 59 | 21 | 7.0 | 12.0 | 0.00 | 0.00 | 0.00 | 67 | 1009.8 |
| 20260505160713 | 59 | 46 | 6.0 | 12.0 | 0.00 | 0.00 | 0.00 | 68 | 1009.8 |
| 20260505153213 | 58 | 34 | 5.0 | 10.0 | 0.00 | 0.00 | 0.00 | 68 | 1009.9 |
| 20260505152214 | 58 | 20 | 7.0 | 13.0 | 0.00 | 0.00 | 0.00 | 68 | 1009.9 |
| 20260505151714 | 58 | 12 | 6.0 | 12.0 | 0.00 | 0.00 | 0.00 | 67 | 1010.0 |
| 20260505151213 | 58 | 11 | 8.0 | 13.0 | 0.00 | 0.00 | 0.00 | 66 | 1010.0 |
| 20260505150713 | 58 | 16 | 8.0 | 13.0 | 0.00 | 0.00 | 0.00 | 66 | 1010.0 |
| 20260505150213 | 58 | 46 | 9.0 | 15.0 | 0.00 | 0.00 | 0.00 | 66 | 1010.0 |
| 20260505130212 | 58 | 84 | 6.0 | 14.0 | 0.00 | 0.00 | 0.00 | 70 | 1010.6 |
| 20260505124213 | 59 | 69 | 6.0 | 13.0 | 0.00 | 0.00 | 0.00 | 70 | 1010.6 |
| 20260505123713 | 59 | 63 | 6.0 | 13.0 | 0.00 | 0.00 | 0.00 | 71 | 1010.7 |
| 20260505123213 | 58 | 81 | 6.0 | 16.0 | 0.00 | 0.00 | 0.00 | 72 | 1010.7 |
| 20260505122713 | 58 | 77 | 6.0 | 16.0 | 0.00 | 0.00 | 0.00 | 72 | 1010.7 |
| 20260505122213 | 59 | 74 | 7.0 | 13.0 | 0.00 | 0.00 | 0.00 | 70 | 1010.6 |
| 20260505121713 | 59 | 47 | 5.0 | 13.0 | 0.00 | 0.00 | 0.00 | 71 | 1010.6 |
| 20260505121213 | 59 | 37 | 6.0 | 12.0 | 0.00 | 0.00 | 0.00 | 70 | 1010.6 |
| 20260505120213 | 59 | 70 | 7.0 | 12.0 | 0.00 | 0.00 | 0.00 | 70 | 1010.7 |
| 20260505115713 | 59 | 26 | 6.0 | 14.0 | 0.00 | 0.00 | 0.00 | 70 | 1010.7 |
| 20260505115213 | 59 | 74 | 6.0 | 14.0 | 0.00 | 0.00 | 0.00 | 69 | 1010.8 |
| 20260505114712 | 60 | 12 | 7.0 | 14.0 | 0.00 | 0.00 | 0.00 | 69 | 1010.8 |
| 20260505114213 | 59 | 60 | 6.0 | 14.0 | 0.00 | 0.00 | 0.00 | 70 | 1010.9 |
| 20260505113213 | 60 | 11 | 6.0 | 20.0 | 0.00 | 0.00 | 0.00 | 68 | 1011.0 |
| 20260505112712 | 61 | 41 | 6.0 | 12.0 | 0.00 | 0.00 | 0.00 | 69 | 1011.1 |
| 20260505112212 | 60 | 48 | 5.0 | 12.0 | 0.00 | 0.00 | 0.00 | 71 | 1011.1 |
| 20260505111213 | 59 | 51 | 7.0 | 14.0 | 0.00 | 0.00 | 0.00 | 70 | 1011.1 |
| 20260505110712 | 59 | 61 | 7.0 | 16.0 | 0.00 | 0.00 | 0.00 | 70 | 1011.1 |
| 20260505102212 | 59 | 45 | 6.0 | 12.0 | 0.00 | 0.00 | 0.00 | 71 | 1011.4 |
| 20260505101712 | 59 | 18 | 8.0 | 14.0 | 0.00 | 0.00 | 0.00 | 73 | 1011.5 |
| 20260505101213 | 58 | 9 | 6.0 | 14.0 | 0.00 | 0.00 | 0.00 | 72 | 1011.5 |
| 20260505100713 | 58 | 19 | 8.0 | 15.0 | 0.00 | 0.00 | 0.00 | 72 | 1011.5 |
| 20260505100213 | 58 | 17 | 7.0 | 12.0 | 0.00 | 0.00 | 0.00 | 75 | 1011.5 |
| 20260505095712 | 57 | 54 | 5.0 | 10.0 | 0.00 | 0.00 | 0.00 | 76 | 1011.5 |
| 20260505095213 | 57 | 14 | 6.0 | 12.0 | 0.00 | 0.00 | 0.00 | 76 | 1011.6 |
| 20260505094714 | 57 | 65 | 4.0 | 12.0 | 0.00 | 0.00 | 0.00 | 74 | 1011.5 |
| 20260505094212 | 57 | 71 | 6.0 | 18.0 | 0.00 | 0.00 | 0.00 | 73 | 1011.5 |
| 20260505093712 | 58 | 75 | 5.0 | 18.0 | 0.00 | 0.00 | 0.00 | 73 | 1011.5 |
| 20260505093212 | 58 | 65 | 7.0 | 16.0 | 0.00 | 0.00 | 0.00 | 75 | 1011.5 |
| 20260505092713 | 57 | 53 | 5.0 | 12.0 | 0.00 | 0.00 | 0.00 | 79 | 1011.6 |
| 20260505092212 | 55 | 29 | 6.0 | 12.0 | 0.00 | 0.00 | 0.00 | 79 | 1011.5 |
| 20260505091713 | 55 | 22 | 7.0 | 12.0 | 0.00 | 0.00 | 0.00 | 79 | 1011.5 |
| 20260505091214 | 55 | 45 | 5.0 | 12.0 | 0.00 | 0.00 | 0.00 | 82 | 1011.5 |
| 20260505090712 | 55 | 68 | 4.0 | 9.0 | 0.00 | 0.00 | 0.00 | 82 | 1011.5 |
| 20260505085712 | 54 | 68 | 4.0 | 12.0 | 0.00 | 0.00 | 0.00 | 83 | 1011.4 |
| 20260505085212 | 54 | 75 | 2.0 | 9.0 | 0.00 | 0.00 | 0.00 | 85 | 1011.5 |
| 20260505084712 | 54 | 67 | 3.0 | 10.0 | 0.00 | 0.00 | 0.00 | 85 | 1011.5 |
| 20260505084213 | 54 | 52 | 3.0 | 9.0 | 0.00 | 0.00 | 0.00 | 85 | 1011.5 |
| 20260505083712 | 53 | 55 | 4.0 | 9.0 | 0.00 | 0.00 | 0.00 | 85 | 1011.5 |
| 20260505083212 | 54 | 80 | 3.0 | 7.0 | 0.00 | 0.00 | 0.00 | 85 | 1011.5 |
| 20260505082712 | 54 | 42 | 3.0 | 10.0 | 0.00 | 0.00 | 0.00 | 86 | 1011.4 |
| 20260505082212 | 54 | 73 | 3.0 | 10.0 | 0.00 | 0.00 | 0.00 | 86 | 1011.3 |
| 20260505081712 | 53 | 13 | 6.0 | 12.0 | 0.00 | 0.00 | 0.00 | 85 | 1011.3 |
| 20260505081212 | 53 | 27 | 5.0 | 10.0 | 0.00 | 0.00 | 0.00 | 85 | 1011.3 |
| 20260505080712 | 53 | 42 | 5.0 | 12.0 | 0.00 | 0.00 | 0.00 | 85 | 1011.3 |
| 20260505080212 | 53 | 27 | 6.0 | 12.0 | 0.00 | 0.00 | 0.00 | 84 | 1011.3 |
| 20260505075712 | 53 | 25 | 6.0 | 14.0 | 0.00 | 0.00 | 0.00 | 85 | 1011.4 |
| 20260505075213 | 53 | 36 | 7.0 | 15.0 | 0.00 | 0.00 | 0.00 | 84 | 1011.4 |
| 20260505074212 | 53 | 23 | 6.0 | 10.0 | 0.00 | 0.00 | 0.00 | 85 | 1011.5 |
| 20260505073712 | 53 | 24 | 6.0 | 12.0 | 0.00 | 0.00 | 0.00 | 85 | 1011.5 |
| 20260505073212 | 52 | 17 | 6.0 | 13.0 | 0.00 | 0.00 | 0.00 | 85 | 1011.5 |
| 20260505072212 | 52 | 24 | 8.0 | 13.0 | 0.00 | 0.00 | 0.00 | 86 | 1011.6 |
| 20260505071712 | 52 | 52 | 4.0 | 12.0 | 0.00 | 0.00 | 0.00 | 87 | 1011.7 |
| 20260505071212 | 52 | 17 | 3.0 | 8.0 | 0.00 | 0.00 | 0.00 | 87 | 1011.6 |
| 20260505070212 | 52 | 6 | 8.0 | 12.0 | 0.00 | 0.00 | 0.00 | 86 | 1011.7 |
| 20260505065712 | 52 | 17 | 6.0 | 10.0 | 0.00 | 0.00 | 0.00 | 87 | 1011.8 |
| 20260505064212 | 51 | 39 | 5.0 | 8.0 | 0.00 | 0.00 | 0.00 | 87 | 1011.9 |
| 20260505063712 | 51 | 10 | 7.0 | 12.0 | 0.00 | 0.00 | 0.00 | 87 | 1012.0 |
| 20260505062712 | 51 | 15 | 6.0 | 12.0 | 0.00 | 0.00 | 0.00 | 87 | 1011.9 |
| 20260505062212 | 51 | 19 | 6.0 | 12.0 | 0.00 | 0.00 | 0.00 | 87 | 1012.1 |
| 20260505061712 | 51 | 25 | 6.0 | 10.0 | 0.00 | 0.00 | 0.00 | 87 | 1012.1 |
| 20260505061212 | 51 | 11 | 5.0 | 10.0 | 0.00 | 0.00 | 0.00 | 87 | 1012.1 |
| 20260505060712 | 51 | 14 | 6.0 | 12.0 | 0.00 | 0.00 | 0.00 | 87 | 1012.0 |
| 20260505060212 | 51 | 21 | 4.0 | 9.0 | 0.00 | 0.00 | 0.00 | 87 | 1012.0 |
| 20260505055712 | 51 | 19 | 5.0 | 9.0 | 0.00 | 0.00 | 0.00 | 88 | 1011.9 |
| 20260505055212 | 51 | 10 | 6.0 | 10.0 | 0.00 | 0.00 | 0.00 | 88 | 1011.9 |
| 20260505054713 | 51 | 7 | 6.0 | 10.0 | 0.00 | 0.00 | 0.00 | 88 | 1011.9 |
| 20260505054212 | 51 | 15 | 6.0 | 10.0 | 0.00 | 0.00 | 0.00 | 88 | 1011.9 |
| 20260505053712 | 51 | 5 | 6.0 | 10.0 | 0.00 | 0.00 | 0.00 | 88 | 1011.9 |
| 20260505052213 | 51 | 11 | 5.0 | 9.0 | 0.00 | 0.00 | 0.00 | 88 | 1011.8 |
| 20260505051711 | 51 | 22 | 6.0 | 12.0 | 0.00 | 0.00 | 0.00 | 88 | 1011.7 |
| 20260505051211 | 51 | 20 | 5.0 | 10.0 | 0.00 | 0.00 | 0.00 | 88 | 1011.7 |
| 20260505050211 | 51 | 19 | 5.0 | 8.0 | 0.00 | 0.00 | 0.00 | 88 | 1011.6 |
| 20260505041712 | 51 | 21 | 4.0 | 8.0 | 0.00 | 0.00 | 0.00 | 88 | 1011.6 |
| 20260505041213 | 51 | 5 | 5.0 | 8.0 | 0.00 | 0.00 | 0.00 | 88 | 1011.7 |
| 20260505040712 | 51 | 22 | 5.0 | 9.0 | 0.00 | 0.00 | 0.00 | 88 | 1011.7 |
| 20260505040212 | 51 | 22 | 5.0 | 9.0 | 0.00 | 0.00 | 0.00 | 88 | 1011.7 |
| 20260505035212 | 51 | 23 | 6.0 | 10.0 | 0.00 | 0.00 | 0.00 | 88 | 1011.7 |
| 20260505034711 | 51 | 24 | 6.0 | 10.0 | 0.00 | 0.00 | 0.00 | 88 | 1011.7 |
| 20260505034211 | 51 | 2 | 5.0 | 9.0 | 0.00 | 0.00 | 0.00 | 88 | 1011.8 |
| 20260505033711 | 51 | 6 | 5.0 | 9.0 | 0.00 | 0.00 | 0.00 | 88 | 1011.8 |